Temp
2 2 2 2 2 2 2 2 2 2 2 3 4 4 6 7 8 8 9 10 10 9 9 9 9 9 9 10 9 9 9 9 9 9 9 8 7 7 7 7 7 7 7 7 8 8 9 9 10 10 11 12 12 12 12 12 13 13 12 12 11 11 13 13 14 15 14 15 14 14 14 15 16 16 15 15 14 13 13 13 13 14 14 14 14 14 14 14
2 2 2 2 2 2 2 2 2 3 3 3 4 4 5 6 6 7 7 8 9 9 9 9 9 9 9 9 9 9 9 9 9 8 8 8 7 7 7 7 7 7 7 7 7 7 8 9 9 9 10 11 11 11 12 12 12 12 11 11 11 11 12 13 13 13 13 13 13 13 14 14 15 14 15 14 12 12 12 12 11 12 13 13 14 14 14 14
1 2 2 2 2 2 3 3 3 4 4 4 4 4 5 5 6 6 7 8 8 9 9 9 9 9 9 9 9 9 8 8 8 7 7 8 7 7 7 7 7 7 7 7 7 7 7 7 8 8 8 9 10 11 11 12 12 12 11 11 11 11 12 13 12 11 12 12 12 13 14 14 13 13 14 13 11 11 11 11 11 12 12 13 14 14 14 14
1 1 1 2 2 3 4 4 5 5 5 4 4 4 4 5 5 6 7 8 8 8 8 8 8 9 9 9 9 9 8 8 7 7 7 7 7 7 7 7 7 7 7 7 7 7 7 7 7 7 8 8 10 10 10 11 12 11 11 11 11 11 12 12 11 11 11 12 12 12 13 13 12 12 12 11 12 12 9 9 9 10 12 13 13 14 14 14
1 1 1 1 3 5 5 5 6 5 5 5 5 4 4 5 5 6 7 7 8 8 8 8 8 8 8 8 8 8 8 8 7 7 7 7 6 6 6 7 7 7 6 7 7 7 7 7 7 8 7 8 9 10 10 11 11 11 10 10 10 10 12 11 10 11 11 12 12 12 12 12 11 10 9 9 11 10 8 8 9 9 11 12 13 13 14 14
1 1 1 1 3 5 6 6 6 6 6 6 5 5 5 5 6 6 7 7 8 7 7 7 8 8 8 8 8 8 8 8 7 7 7 6 6 6 6 6 6 6 6 6 7 7 7 7 8 7 7 7 8 8 10 10 10 10 9 9 9 10 10 10 10 11 11 11 11 10 12 11 10 8 7 7 7 6 6 7 9 9 10 11 13 13 13 14
1 1 1 2 4 6 6 6 6 6 6 6 6 5 4 5 5 6 6 7 7 7 7 7 7 7 7 7 7 7 7 7 6 6 6 6 6 6 6 6 6 6 6 6 7 6 6 6 7 6 6 7 7 7 8 9 9 10 9 9 9 9 9 9 10 11 11 11 10 11 12 10 9 9 7 5 4 4 5 6 8 9 9 10 12 13 13 13
1 2 2 2 4 6 6 6 6 6 7 6 6 5 5 5 5 6 6 6 7 7 7 7 7 7 7 7 7 7 7 6 6 6 6 6 6 6 6 6 5 6 6 6 6 6 6 6 6 6 5 6 6 7 7 8 8 9 8 8 8 9 9 9 10 10 11 11 10 11 11 8 8 9 6 4 4 5 5 5 6 7 8 9 11 12 12 13
2 3 4 4 5 6 6 6 6 7 7 6 6 6 6 6 6 6 6 6 6 6 6 6 7 7 7 7 7 7 6 6 6 6 6 6 6 5 5 5 5 6 5 5 5 6 6 5 5 5 5 5 6 6 7 7 8 7 7 7 8 8 9 9 10 10 11 11 11 11 9 8 8 8 6 4 4 5 5 5 5 5 7 9 10 11 11 12
4 4 5 6 6 6 6 6 6 7 6 6 6 6 6 6 6 6 7 6 6 6 6 6 6 6 6 6 6 6 6 6 5 5 5 5 5 5 5 5 5 5 5 5 5 5 5 5 5 5 5 5 6 6 6 7 7 7 7 7 8 8 9 9 9 10 10 11 11 11 10 9 8 9 8 4 4 5 6 6 5 5 6 7 9 10 10 11
6 6 6 6 6 6 6 6 6 6 6 6 6 6 6 6 6 6 7 6 6 6 6 6 6 6 5 6 6 5 5 5 5 5 5 5 5 5 4 5 5 5 5 5 5 5 5 5 5 5 5 6 6 6 7 7 7 7 7 7 8 8 8 9 10 10 10 11 11 11 11 9 8 9 7 4 4 5 5 6 6 5 6 6 7 8 9 10
7 7 7 6 6 6 6 6 6 6 6 6 6 6 5 6 6 6 6 6 5 5 5 5 5 5 5 5 5 5 5 5 5 5 4 5 5 4 4 4 4 4 5 5 5 5 5 5 5 5 5 5 6 6 7 7 7 7 7 8 7 7 9 9 9 10 10 10 11 11 11 10 9 7 5 4 4 5 5 5 5 6 6 6 6 7 8 9
7 7 7 6 6 6 6 6 6 6 6 6 5 5 5 6 6 6 6 6 5 5 5 5 5 5 5 5 5 5 5 5 4 4 4 4 4 4 4 4 4 4 4 4 5 5 5 5 5 5 5 5 5 6 7 7 7 8 7 7 7 7 9 8 8 9 9 9 11 11 10 10 9 5 4 4 4 5 5 5 5 6 6 6 6 7 8 8
7 7 7 7 7 7 6 6 6 6 6 5 5 5 5 5 6 6 5 5 5 5 5 4 4 5 5 4 4 4 4 4 4 4 4 4 4 4 4 4 4 4 4 4 4 5 5 5 5 6 5 5 5 6 6 6 7 7 7 7 6 7 8 8 7 8 9 9 11 11 9 10 9 4 4 4 4 5 5 5 6 6 6 6 6 7 7 8
7 7 7 7 7 7 6 6 6 6 6 6 5 5 5 5 5 6 5 5 5 5 5 4 4 4 4 4 4 4 4 4 4 4 4 4 4 4 4 4 4 4 4 4 4 5 5 5 5 5 6 6 6 5 5 6 6 7 7 7 6 6 7 8 7 7 8 9 10 10 9 9 7 4 4 4 4 4 4 5 5 6 6 6 6 6 7 7
7 7 7 8 7 7 6 6 6 6 6 6 6 6 6 5 5 5 5 5 5 5 5 4 4 4 4 4 5 4 4 4 4 4 4 4 4 4 4 4 4 4 4 4 4 5 5 5 5 5 5 6 5 5 5 6 6 6 6 6 6 6 6 7 7 6 6 8 8 9 9 8 5 3 4 4 4 4 4 4 4 5 5 5 6 6 6 7
7 7 7 8 7 7 6 6 6 6 6 6 6 6 6 5 5 5 5 5 5 5 5 5 4 4 4 4 4 4 4 4 4 3 3 4 4 4 4 4 4 4 4 5 5 5 5 5 5 5 5 4 4 5 5 5 5 6 5 5 6 5 5 6 7 6 6 7 8 8 7 5 3 3 4 4 4 4 4 4 4 5 5 5 5 6 6 7
7 7 7 7 7 7 6 6 6 6 6 6 6 6 6 5 5 5 5 5 4 4 5 5 4 5 5 4 4 4 4 3 3 3 3 3 4 4 4 4 4 4 4 5 5 5 5 5 5 5 5 4 5 5 5 5 5 5 5 5 5 5 5 5 6 7 6 6 7 7 6 4 3 3 4 4 4 4 4 4 4 4 4 5 5 6 6 6
7 7 7 7 7 6 6 6 6 5 5 5 6 6 6 5 5 5 5 5 5 5 5 4 4 5 5 4 4 4 4 4 3 3 3 3 3 3 3 3 3 4 4 4 4 4 4 5 5 4 4 4 4 4 4 5 5 5 5 5 5 5 5 5 6 6 5 6 7 6 6 5 4 4 3 4 4 4 4 4 4 4 4 4 5 6 6 6
7 7 7 7 7 6 6 6 5 5 5 5 5 6 6 5 5 5 5 5 5 5 5 4 4 4 4 4 4 4 4 3 3 3 3 3 3 3 3 3 3 3 3 3 4 4 4 4 4 4 4 3 3 3 4 4 5 5 5 5 4 4 5 5 6 6 5 5 6 6 5 5 5 4 3 3 4 3 3 3 3 3 3 4 5 6 6 7
7 7 7 7 6 6 6 6 5 5 5 5 5 6 5 4 4 4 4 4 5 4 4 4 4 4 4 4 4 4 4 3 3 3 3 3 3 3 3 3 3 3 3 3 3 4 4 4 4 4 3 3 4 4 4 4 5 5 5 5 4 4 4 5 5 5 4 5 6 5 5 5 6 5 3 2 3 3 3 4 3 4 4 4 5 6 7 7
7 7 6 6 6 6 6 5 5 5 5 5 5 5 4 3 4 4 3 3 4 4 4 4 4 4 4 4 4 4 4 3 3 3 3 3 3 3 3 3 3 2 2 3 3 3 3 3 4 4 3 3 4 4 4 5 5 5 4 4 4 4 4 4 5 5 4 5 6 5 4 5 6 5 3 1 2 3 4 4 4 4 4 4 5 6 7 7
7 6 6 6 6 6 5 5 5 5 4 4 4 4 3 3 3 3 3 3 3 4 4 4 4 4 4 4 3 3 3 3 3 3 3 2 2 3 2 2 3 3 3 3 3 2 2 3 4 3 3 4 4 4 4 5 5 4 4 4 4 3 4 5 5 5 4 4 5 5 4 4 5 5 4 2 2 3 3 3 4 4 4 4 5 6 7 7
7 6 6 6 6 5 5 5 4 4 5 4 4 4 3 3 3 3 3 2 2 4 4 4 4 4 4 4 3 3 3 2 2 2 2 2 2 2 2 2 2 3 2 2 2 2 3 3 3 3 4 4 4 4 4 4 4 4 4 4 4 4 4 4 4 3 4 4 4 4 4 4 5 5 4 3 1 2 2 2 2 3 3 4 4 5 6 7
6 6 6 6 5 5 5 5 4 5 5 4 3 3 3 3 3 3 3 3 4 4 4 4 4 4 4 4 3 3 3 2 2 2 2 2 2 2 2 2 2 2 2 2 2 2 3 3 3 3 4 3 3 3 3 4 3 3 4 4 4 4 4 3 3 3 4 4 4 4 4 5 6 5 4 3 2 2 2 1 1 2 3 3 3 3 4 6
6 6 6 6 5 5 5 4 4 4 4 3 3 2 3 3 3 3 3 5 6 5 4 4 4 4 4 4 3 3 3 2 2 2 2 2 2 2 2 2 2 2 2 2 2 2 2 2 3 3 3 3 3 3 3 3 3 3 4 4 4 4 3 3 3 3 3 4 4 4 3 4 5 4 5 5 3 4 3 1 1 2 2 3 3 3 3 4
6 6 6 6 5 5 5 4 4 4 3 3 3 2 3 3 3 3 4 7 8 5 4 4 4 4 4 4 3 3 3 3 2 2 2 2 1 2 2 1 2 2 1 2 2 2 2 2 3 3 3 3 3 3 3 3 2 3 3 3 4 4 4 4 3 3 3 3 3 3 3 2 2 4 5 4 3 3 2 1 1 0 1 3 3 3 3 3
6 6 5 5 5 5 5 5 4 4 3 3 3 3 3 3 3 3 5 9 8 5 4 4 4 4 4 4 3 3 3 2 2 2 2 2 1 2 1 1 1 1 1 1 2 1 1 2 2 2 2 2 2 3 3 3 3 3 3 3 3 4 4 3 3 3 3 2 2 3 3 2 2 4 5 2 1 2 2 2 1 0 0 2 3 3 3 3
6 5 5 5 5 5 5 5 5 4 4 3 3 3 3 3 3 3 6 9 6 4 4 4 4 4 3 3 3 3 3 2 2 2 1 1 1 1 1 1 1 1 1 1 2 1 1 2 2 1 1 2 3 3 3 3 3 3 3 3 3 3 3 3 3 3 2 1 2 2 2 2 2 4 4 2 1 2 3 4 3 2 2 2 3 4 4 4
6 5 5 5 5 5 5 4 4 4 4 3 3 3 2 3 4 6 8 8 6 4 4 4 4 3 3 3 3 2 2 2 1 1 1 1 1 1 1 1 1 1 1 0 1 1 1 1 1 1 2 2 2 2 2 2 3 3 3 3 4 3 3 2 2 2 2 1 2 3 3 2 2 3 4 4 3 4 4 4 4 3 2 3 3 4 5 5
6 5 5 5 5 5 4 4 4 4 3 3 3 2 3 3 4 8 9 7 5 5 4 4 2 2 3 2 3 2 1 1 0 1 1 0 1 1 1 1 1 1 1 1 1 1 0 1 1 1 2 2 2 2 2 2 2 2 3 3 3 3 2 2 1 1 1 2 2 3 3 1 1 3 5 5 5 5 5 5 5 4 3 3 3 4 5 6
6 5 5 5 5 4 4 4 4 4 3 3 3 2 3 5 6 8 8 6 6 5 4 3 2 2 2 1 2 2 0 1 -0 -0 1 0 0 1 1 1 1 2 2 2 2 1 2 1 -1 0 2 1 1 1 2 2 2 2 2 2 2 1 1 1 1 0 0 1 2 2 2 2 2 3 4 4 5 5 5 5 6 5 4 4 5 4 4 5
6 5 5 5 4 4 4 4 3 3 3 3 2 2 4 7 8 7 6 6 6 4 3 3 1 1 1 2 3 1 0 1 0 -1 -0 -1 -0 -0 -0 -0 0 1 2 1 1 1 3 1 -2 0 2 1 2 2 2 3 2 2 2 2 1 0 1 1 -0 -0 -0 1 3 2 2 2 3 4 5 5 5 5 5 5 5 6 6 6 6 6 5 3
5 5 5 4 4 4 4 3 3 3 3 2 2 3 5 8 8 6 6 6 4 2 2 1 1 1 0 2 2 0 1 2 -0 -1 -1 -1 0 0 -0 -0 -0 1 1 1 1 1 3 3 2 2 2 2 2 2 2 3 2 2 2 2 2 1 1 1 0 1 1 2 2 2 2 2 4 5 6 5 5 5 6 6 6 6 6 6 6 6 5 3
5 5 4 4 4 4 3 3 3 3 3 2 3 4 6 8 8 6 6 5 2 3 2 -0 1 2 2 1 0 -0 2 2 0 0 0 0 1 1 1 1 0 1 1 1 1 0 1 4 3 1 1 1 2 2 2 3 2 2 1 1 1 2 2 2 1 1 1 1 1 2 2 4 5 7 7 6 5 5 5 6 6 6 6 6 5 4 4 4
5 4 4 4 4 4 3 3 3 3 2 2 3 5 6 7 7 6 5 4 3 3 2 1 2 3 4 3 1 0 1 1 1 1 1 1 1 1 1 1 -0 1 1 1 2 1 1 3 3 1 1 1 2 2 2 2 3 2 1 2 2 2 3 2 1 1 1 0 2 2 3 4 5 6 7 7 7 6 5 5 5 5 5 4 3 4 4 4
5 4 4 4 3 3 3 3 3 3 2 2 4 6 5 5 5 4 3 2 3 3 3 5 4 3 4 4 3 1 0 1 1 1 2 1 2 2 2 1 0 0 1 1 2 2 2 3 3 2 2 1 1 2 2 2 3 2 1 2 2 2 2 2 1 1 1 1 2 3 3 4 4 5 6 6 6 6 6 5 4 4 4 3 3 4 4 5
4 4 4 3 3 3 3 3 3 2 2 2 4 5 4 4 3 2 2 2 2 2 3 5 5 3 4 4 4 2 1 2 2 1 2 2 2 2 2 2 1 -0 1 1 2 2 1 2 3 2 2 2 1 1 2 2 2 2 2 2 2 2 2 2 1 2 2 1 2 3 4 4 4 5 6 6 6 6 6 6 5 4 3 2 2 3 3 4
4 3 4 3 3 3 3 3 2 2 2 2 5 5 3 2 2 1 2 2 2 3 4 5 4 3 3 3 3 2 1 2 2 1 3 3 3 3 2 2 1 -0 0 1 1 2 1 2 3 2 2 2 1 1 2 2 2 1 2 2 2 2 2 2 2 2 2 2 2 3 4 5 6 6 6 6 7 7 6 6 5 4 3 2 3 3 2 2
4 3 3 3 3 3 3 2 2 2 2 3 4 4 2 2 2 1 2 2 2 3 4 3 3 3 3 2 3 2 1 1 1 2 3 3 3 3 2 1 1 -0 -0 1 1 1 1 1 1 2 2 2 2 2 2 3 2 1 1 2 2 2 2 2 2 3 3 2 2 3 3 5 7 8 7 7 7 7 6 5 5 4 3 3 3 3 2 2
3 3 3 3 3 3 2 2 1 1 2 3 3 2 2 2 2 1 1 1 1 2 2 2 3 3 3 3 2 2 2 1 1 2 2 2 3 4 3 2 1 -0 -0 0 0 0 1 1 1 2 2 2 3 3 2 3 3 2 2 2 2 2 2 2 2 3 3 2 3 3 3 5 8 8 8 8 7 6 5 4 3 3 3 3 3 3 2 2
3 3 3 3 2 2 2 2 1 1 2 3 3 2 2 2 1 1 0 1 1 1 1 1 1 2 3 3 2 2 2 2 1 1 2 2 3 4 3 2 2 1 1 1 0 1 1 1 1 2 2 2 4 3 2 2 3 3 2 3 3 2 2 2 2 3 3 3 3 3 3 5 8 8 8 7 5 4 3 2 2 3 3 3 2 2 2 1
2 3 3 2 2 2 2 2 2 1 2 2 2 1 1 1 1 0 -0 0 1 1 1 1 1 1 2 2 2 2 2 3 2 2 2 2 3 3 3 2 2 1 1 1 0 1 1 1 1 1 2 2 3 2 1 2 3 3 3 3 3 2 3 3 3 3 3 3 4 3 3 6 8 7 6 5 3 2 2 2 2 1 2 2 2 1 1 1
3 3 2 2 2 1 1 3 4 3 2 1 1 2 1 -0 -0 1 1 1 1 0 1 1 1 1 1 0 1 2 2 3 3 2 2 2 3 3 2 2 2 1 1 2 2 2 2 1 1 1 2 2 3 3 3 2 2 2 3 3 2 3 3 3 3 3 2 3 4 3 4 6 8 7 6 5 4 4 3 2 2 2 1 1 1 1 1 0
2 2 1 1 1 0 1 2 3 4 3 2 2 3 2 1 1 1 1 1 0 0 1 1 1 1 0 -1 1 1 1 2 3 2 1 2 2 1 1 2 2 1 1 2 2 2 2 1 2 2 2 2 4 6 5 3 2 2 3 3 2 2 2 2 3 3 3 4 5 4 4 6 8 8 7 7 7 6 3 1 2 2 1 1 1 0 0 -0
3 3 1 -1 -1 -1 0 0 1 2 3 3 3 3 3 3 2 0 1 1 1 1 1 1 1 1 0 -0 0 1 0 1 1 1 1 2 2 1 0 1 1 1 2 2 2 2 1 1 1 2 2 2 4 5 4 3 3 2 3 3 2 2 2 2 3 3 4 4 4 4 5 5 6 7 7 7 7 6 5 3 1 0 1 0 0 0 -0 -1
3 4 2 1 0 -1 -1 -0 -0 1 2 3 4 4 3 3 2 1 0 0 1 1 0 1 1 1 1 0 1 1 0 -0 0 0 0 1 1 1 0 0 0 1 1 1 1 2 1 0 1 2 2 2 3 3 3 3 2 2 2 2 3 3 2 2 2 3 4 4 3 5 5 5 5 6 7 7 7 6 6 4 1 0 1 0 -0 -0 -1 -1
3 5 5 4 4 1 0 1 0 -0 1 3 4 4 4 4 3 3 2 -0 -1 0 1 1 0 1 1 1 2 2 -0 -1 0 0 1 1 -0 0 0 -0 -1 1 1 0 1 1 0 0 1 1 1 2 2 2 2 2 1 2 2 2 2 2 2 2 2 3 4 3 3 5 5 5 5 6 6 6 6 5 4 3 2 2 1 -0 -1 -1 -2 -2
3 4 4 5 5 4 4 5 2 0 1 2 3 3 4 4 4 4 2 0 -0 0 1 2 2 1 0 1 2 2 1 2 3 2 1 1 0 1 2 1 -0 -0 -0 -0 -1 -0 0 1 0 0 1 1 1 1 1 1 1 1 1 2 2 2 2 2 2 3 3 3 3 4 4 4 5 5 6 6 5 3 3 2 2 2 1 0 -0 -1 -2 -2
3 4 5 4 4 3 4 4 2 1 1 2 3 3 3 4 5 4 2 2 3 1 -1 2 3 1 -0 0 1 2 3 4 6 4 2 1 1 1 2 3 1 -1 -1 -1 -1 -1 0 0 -0 0 0 1 1 2 1 1 1 1 1 1 2 2 2 2 2 2 2 2 3 3 3 3 4 5 5 4 3 3 3 2 2 2 1 1 -0 -1 -1 -1
3 4 5 5 3 3 3 2 1 2 2 1 2 3 3 4 5 4 3 4 5 4 0 2 3 1 -1 -1 -0 1 2 2 4 4 2 3 3 2 3 3 1 -0 -1 -1 -1 -0 -1 -0 0 0 1 1 2 2 1 1 1 1 2 3 2 1 2 2 2 2 2 2 3 2 2 3 4 5 4 3 4 4 3 2 1 2 2 1 1 0 -0 -0
3 3 4 4 3 3 3 2 1 2 2 2 2 3 4 4 3 4 5 5 4 4 3 2 2 1 0 -0 -0 2 3 2 2 3 3 3 3 3 3 2 1 1 -1 -1 -1 -1 -1 -1 0 0 1 2 1 1 1 1 3 5 6 6 5 3 2 2 2 2 2 3 3 3 4 5 5 5 5 6 7 6 5 3 3 3 3 2 2 2 2 2
Height
1556 1555 1554 1554 1554 1553 1553 1552 1552 1551 1550 1549 1549 1548 1547 1546 1545 1545 1544 1543 1543 1542 1542 1542 1541 1540 1540 1539 1539 1538 1537 1537 1536 1535 1535 1535 1534 1534 1533 1533 1532 1530 1529 1528 1526 1525 1524 1523 1523 1522 1521 1521 1521 1521 1521 1521 1521 1521 1523 1525 1525 1524 1522 1519 1518 1517 1516 1514 1512 1512 1512 1512 1510 1509 1509 1508 1508 1507 1509 1510 1510 1512 1513 1515 1519 1521 1524 1526
1555 1555 1554 1554 1553 1553 1552 1552 1551 1550 1550 1549 1549 1548 1547 1546 1545 1545 1544 1543 1542 1542 1541 1541 1541 1540 1539 1539 1538 1538 1537 1536 1536 1535 1535 1535 1535 1534 1533 1533 1532 1530 1529 1527 1526 1525 1524 1523 1522 1521 1521 1520 1520 1520 1520 1520 1520 1520 1522 1524 1522 1521 1519 1516 1517 1516 1516 1515 1513 1512 1512 1511 1510 1509 1509 1509 1512 1511 1510 1512 1512 1511 1514 1516 1518 1521 1524 1526
1555 1554 1554 1553 1553 1552 1551 1551 1550 1550 1549 1549 1549 1548 1547 1546 1545 1545 1544 1543 1542 1542 1541 1540 1540 1539 1539 1538 1538 1537 1537 1536 1536 1535 1535 1535 1534 1534 1533 1532 1531 1530 1529 1528 1527 1526 1525 1524 1523 1522 1521 1520 1519 1519 1519 1519 1519 1519 1520 1522 1519 1518 1517 1515 1517 1517 1516 1515 1513 1512 1511 1510 1510 1509 1509 1510 1512 1513 1513 1514 1514 1512 1514 1516 1518 1520 1523 1525
1555 1554 1553 1553 1552 1551 1551 1550 1550 1549 1549 1548 1548 1548 1547 1546 1545 1545 1544 1543 1542 1541 1541 1540 1540 1539 1538 1538 1537 1537 1536 1536 1536 1536 1535 1535 1534 1533 1532 1532 1531 1530 1529 1528 1527 1526 1526 1524 1524 1523 1522 1521 1519 1519 1519 1519 1519 1518 1518 1519 1517 1516 1516 1515 1515 1515 1515 1514 1513 1512 1510 1510 1511 1510 1509 1511 1512 1513 1514 1514 1514 1513 1513 1515 1516 1519 1520 1523
1554 1554 1553 1553 1552 1551 1550 1550 1549 1549 1549 1548 1548 1547 1547 1546 1545 1545 1544 1543 1542 1542 1541 1541 1540 1539 1539 1538 1537 1537 1536 1536 1537 1536 1535 1535 1533 1532 1532 1531 1530 1529 1528 1527 1526 1526 1525 1524 1524 1523 1523 1522 1520 1519 1519 1518 1518 1518 1517 1517 1517 1517 1516 1515 1515 1515 1514 1513 1512 1511 1511 1512 1512 1511 1511 1512 1512 1513 1514 1514 1513 1513 1513 1514 1515 1516 1518 1520
1554 1553 1553 1552 1552 1551 1550 1550 1549 1549 1549 1548 1548 1547 1547 1546 1545 1545 1544 1544 1543 1542 1542 1541 1540 1540 1539 1538 1537 1537 1536 1536 1537 1536 1535 1534 1533 1532 1531 1530 1530 1529 1528 1527 1526 1525 1525 1524 1524 1524 1523 1522 1522 1521 1519 1518 1518 1518 1517 1517 1517 1517 1516 1516 1515 1514 1514 1513 1513 1512 1512 1512 1512 1513 1513 1513 1514 1515 1515 1514 1514 1513 1513 1513 1514 1515 1516 1518
1553 1553 1552 1552 1551 1550 1550 1549 1549 1549 1549 1548 1547 1547 1546 1546 1545 1545 1544 1544 1543 1543 1542 1541 1541 1540 1539 1538 1538 1537 1536 1537 1537 1535 1534 1533 1532 1532 1531 1530 1529 1529 1527 1526 1525 1525 1525 1524 1524 1524 1524 1524 1523 1522 1520 1518 1518 1517 1518 1517 1517 1517 1517 1516 1516 1515 1514 1513 1514 1513 1512 1512 1513 1513 1514 1515 1516 1516 1515 1515 1515 1514 1514 1513 1513 1514 1515 1517
1553 1552 1552 1552 1551 1550 1549 1549 1549 1549 1548 1548 1547 1547 1546 1546 1545 1545 1544 1544 1543 1543 1542 1542 1541 1540 1539 1539 1538 1538 1537 1537 1536 1535 1534 1533 1532 1531 1531 1530 1529 1529 1527 1526 1525 1525 1525 1525 1525 1525 1525 1525 1524 1523 1521 1519 1518 1518 1519 1518 1517 1517 1516 1516 1515 1515 1514 1514 1514 1513 1512 1512 1513 1513 1515 1517 1517 1517 1516 1516 1517 1516 1514 1513 1513 1513 1515 1516
1552 1552 1551 1551 1550 1550 1549 1549 1549 1549 1548 1548 1547 1546 1546 1545 1545 1544 1544 1544 1543 1543 1542 1542 1541 1540 1540 1539 1539 1538 1538 1538 1536 1535 1534 1533 1532 1531 1531 1530 1529 1529 1528 1526 1526 1525 1525 1525 1526 1526 1526 1526 1525 1523 1522 1521 1521 1520 1520 1519 1517 1516 1516 1515 1515 1515 1514 1514 1513 1513 1513 1513 1513 1513 1515 1517 1517 1517 1517 1518 1518 1518 1515 1513 1513 1513 1514 1515
1552 1551 1551 1550 1550 1549 1549 1549 1549 1548 1548 1548 1547 1546 1546 1545 1545 1544 1544 1543 1543 1543 1542 1542 1541 1541 1540 1540 1539 1539 1539 1538 1537 1536 1535 1533 1532 1531 1531 1530 1529 1529 1528 1527 1526 1525 1525 1526 1526 1526 1526 1525 1525 1524 1523 1523 1522 1521 1520 1519 1517 1516 1515 1514 1514 1514 1514 1513 1513 1513 1513 1513 1513 1513 1515 1516 1517 1517 1518 1518 1519 1519 1517 1513 1512 1512 1513 1515
1551 1550 1550 1550 1549 1549 1549 1549 1549 1548 1548 1547 1547 1546 1546 1545 1545 1544 1544 1543 1543 1543 1542 1542 1541 1541 1541 1540 1540 1540 1539 1538 1537 1536 1535 1534 1533 1532 1531 1530 1529 1529 1528 1527 1526 1526 1525 1526 1525 1525 1526 1525 1524 1523 1523 1523 1522 1521 1520 1518 1517 1515 1514 1513 1513 1513 1513 1513 1513 1513 1513 1513 1514 1514 1514 1516 1517 1518 1518 1518 1518 1519 1517 1514 1512 1512 1512 1514
1550 1550 1550 1549 1549 1549 1549 1549 1548 1548 1548 1547 1547 1546 1546 1545 1544 1544 1543 1543 1543 1543 1542 1542 1541 1541 1541 1540 1540 1540 1539 1538 1537 1536 1535 1534 1533 1532 1531 1530 1529 1529 1528 1528 1527 1526 1526 1525 1525 1525 1525 1525 1524 1523 1522 1522 1521 1520 1519 1518 1517 1516 1513 1512 1511 1511 1512 1512 1512 1513 1513 1512 1513 1514 1515 1516 1517 1517 1518 1518 1518 1518 1517 1514 1512 1512 1512 1513
1550 1550 1549 1549 1549 1548 1548 1548 1548 1548 1547 1547 1547 1546 1545 1545 1544 1544 1543 1543 1542 1542 1542 1541 1541 1541 1541 1541 1540 1540 1539 1538 1538 1537 1536 1534 1533 1532 1531 1530 1529 1529 1528 1528 1527 1526 1526 1525 1524 1524 1524 1524 1524 1523 1522 1521 1520 1519 1519 1519 1519 1518 1515 1511 1511 1511 1511 1511 1510 1513 1515 1511 1512 1515 1515 1516 1517 1517 1518 1518 1518 1517 1516 1514 1512 1511 1512 1513
1549 1549 1549 1549 1548 1548 1548 1548 1548 1547 1547 1547 1546 1546 1545 1545 1544 1543 1543 1542 1542 1541 1541 1541 1541 1541 1541 1541 1540 1540 1539 1539 1538 1537 1536 1534 1533 1532 1531 1530 1529 1529 1528 1528 1527 1526 1525 1525 1524 1524 1524 1524 1523 1522 1522 1521 1520 1520 1519 1520 1522 1522 1517 1512 1513 1512 1511 1511 1509 1512 1515 1510 1511 1516 1515 1516 1517 1517 1517 1517 1517 1516 1515 1514 1512 1511 1512 1513
1549 1548 1548 1548 1548 1548 1548 1548 1547 1547 1547 1546 1546 1545 1545 1545 1544 1543 1543 1542 1541 1541 1541 1541 1541 1541 1541 1541 1540 1540 1539 1539 1538 1537 1536 1534 1533 1532 1531 1530 1529 1529 1528 1527 1526 1526 1525 1525 1524 1524 1523 1523 1523 1523 1523 1522 1521 1521 1521 1521 1524 1525 1519 1515 1515 1514 1513 1512 1510 1512 1513 1510 1512 1516 1516 1517 1517 1517 1517 1516 1516 1515 1514 1514 1512 1512 1512 1513
1548 1548 1547 1547 1548 1548 1548 1548 1547 1547 1547 1546 1546 1545 1545 1545 1544 1543 1543 1542 1541 1541 1541 1541 1540 1540 1541 1541 1540 1540 1539 1539 1538 1537 1536 1535 1533 1532 1531 1530 1529 1528 1528 1527 1526 1525 1525 1525 1524 1524 1523 1523 1524 1524 1524 1523 1523 1523 1524 1523 1523 1524 1522 1518 1516 1515 1514 1512 1511 1511 1511 1512 1516 1518 1517 1518 1518 1517 1517 1516 1516 1515 1514 1514 1512 1512 1512 1513
1547 1547 1547 1547 1547 1547 1547 1547 1547 1547 1546 1546 1545 1545 1544 1544 1544 1544 1543 1542 1541 1541 1541 1541 1540 1540 1540 1540 1540 1540 1539 1539 1538 1537 1536 1535 1534 1532 1531 1529 1529 1528 1527 1527 1526 1525 1525 1525 1525 1525 1524 1524 1525 1525 1525 1526 1526 1525 1527 1526 1525 1525 1524 1522 1517 1515 1515 1514 1513 1513 1514 1518 1520 1519 1518 1518 1518 1518 1517 1516 1516 1516 1515 1514 1513 1513 1513 1513
1547 1547 1546 1546 1546 1547 1547 1547 1547 1546 1546 1545 1545 1544 1544 1544 1544 1543 1543 1542 1541 1541 1541 1540 1540 1539 1539 1540 1540 1540 1539 1538 1538 1537 1536 1535 1534 1532 1531 1530 1529 1528 1527 1527 1526 1526 1526 1525 1525 1525 1525 1525 1526 1526 1527 1528 1528 1528 1528 1527 1526 1526 1525 1524 1521 1517 1516 1516 1515 1514 1516 1520 1520 1519 1518 1518 1518 1518 1517 1517 1516 1515 1515 1514 1513 1513 1513 1513
1547 1546 1546 1546 1546 1546 1546 1546 1546 1546 1545 1545 1544 1543 1543 1543 1543 1543 1543 1542 1541 1541 1541 1541 1540 1540 1540 1540 1540 1540 1539 1538 1537 1537 1536 1535 1533 1532 1531 1530 1530 1529 1528 1528 1527 1527 1527 1526 1526 1527 1528 1529 1529 1529 1529 1527 1527 1528 1528 1527 1527 1527 1524 1524 1523 1519 1518 1518 1516 1515 1516 1517 1518 1518 1517 1516 1516 1517 1516 1516 1516 1515 1515 1514 1513 1512 1512 1512
1546 1546 1545 1545 1545 1545 1546 1546 1545 1545 1545 1544 1544 1543 1542 1542 1542 1543 1543 1542 1542 1542 1541 1541 1541 1540 1540 1540 1540 1540 1538 1538 1537 1537 1536 1534 1533 1532 1531 1530 1530 1530 1530 1530 1530 1529 1528 1529 1530 1530 1531 1531 1530 1529 1529 1528 1527 1527 1527 1528 1528 1529 1526 1523 1523 1519 1518 1518 1516 1516 1517 1516 1516 1515 1515 1514 1515 1515 1514 1514 1514 1514 1514 1513 1512 1512 1511 1511
1546 1545 1545 1545 1545 1545 1545 1545 1545 1544 1544 1543 1543 1542 1542 1542 1543 1543 1543 1542 1542 1542 1541 1541 1541 1540 1540 1540 1540 1539 1538 1538 1537 1537 1536 1535 1533 1532 1531 1531 1531 1532 1531 1531 1531 1529 1530 1531 1531 1531 1531 1531 1530 1529 1528 1528 1528 1526 1527 1528 1528 1530 1527 1523 1523 1520 1518 1519 1517 1517 1518 1515 1513 1513 1512 1513 1514 1512 1510 1510 1510 1510 1510 1510 1510 1510 1510 1509
1545 1545 1545 1545 1544 1544 1544 1544 1544 1543 1543 1543 1542 1542 1542 1542 1543 1543 1543 1543 1542 1541 1541 1541 1540 1540 1540 1540 1539 1539 1538 1538 1537 1537 1536 1535 1534 1533 1532 1532 1533 1534 1533 1532 1532 1532 1533 1532 1531 1531 1531 1530 1529 1529 1529 1528 1527 1527 1528 1528 1528 1529 1528 1523 1522 1521 1520 1519 1516 1516 1517 1513 1510 1510 1511 1511 1510 1507 1506 1506 1506 1506 1506 1506 1506 1506 1507 1507
1544 1544 1544 1544 1544 1544 1544 1544 1543 1543 1543 1542 1542 1542 1542 1542 1542 1542 1542 1542 1542 1541 1541 1541 1540 1540 1540 1539 1539 1538 1538 1538 1538 1536 1536 1535 1534 1534 1533 1533 1534 1534 1534 1534 1535 1536 1535 1532 1530 1530 1530 1530 1529 1529 1529 1527 1527 1528 1528 1529 1529 1529 1529 1525 1521 1521 1521 1520 1518 1517 1517 1513 1509 1509 1508 1507 1506 1504 1504 1504 1504 1504 1503 1503 1503 1503 1503 1503
1544 1544 1544 1544 1544 1544 1544 1543 1543 1543 1542 1542 1542 1542 1542 1542 1542 1542 1542 1542 1542 1541 1540 1540 1540 1540 1540 1539 1539 1538 1538 1538 1538 1537 1536 1536 1535 1535 1534 1534 1534 1535 1536 1536 1536 1537 1536 1532 1531 1530 1530 1530 1530 1530 1529 1528 1528 1529 1528 1528 1527 1527 1528 1527 1525 1525 1522 1520 1518 1518 1517 1510 1505 1506 1504 1504 1505 1503 1503 1503 1502 1501 1501 1501 1502 1501 1500 1500
1543 1543 1543 1543 1543 1543 1544 1543 1543 1543 1542 1542 1542 1542 1542 1542 1542 1542 1542 1542 1540 1540 1540 1540 1540 1540 1540 1539 1538 1538 1538 1538 1538 1538 1537 1536 1536 1536 1535 1534 1534 1536 1537 1536 1536 1536 1534 1532 1531 1531 1530 1531 1531 1530 1530 1530 1530 1530 1527 1526 1526 1526 1527 1527 1528 1527 1524 1520 1517 1517 1519 1509 1500 1504 1504 1503 1505 1502 1499 1501 1500 1498 1498 1498 1498 1497 1497 1497
1542 1542 1543 1543 1543 1543 1543 1543 1543 1543 1542 1542 1542 1542 1542 1541 1542 1541 1542 1542 1538 1537 1539 1539 1540 1540 1539 1539 1539 1538 1538 1538 1538 1538 1537 1537 1537 1536 1536 1535 1535 1536 1537 1536 1536 1536 1534 1532 1531 1532 1531 1531 1532 1531 1530 1530 1532 1532 1528 1526 1527 1526 1527 1527 1527 1528 1527 1523 1517 1518 1523 1515 1503 1502 1501 1500 1502 1499 1497 1497 1495 1494 1495 1494 1494 1493 1494 1494
1541 1542 1542 1542 1542 1542 1542 1543 1543 1542 1543 1542 1542 1542 1541 1541 1542 1541 1542 1539 1534 1535 1538 1538 1539 1539 1538 1539 1539 1538 1538 1538 1537 1538 1537 1537 1537 1536 1537 1537 1535 1536 1536 1536 1537 1535 1534 1533 1533 1533 1532 1532 1533 1532 1530 1530 1533 1533 1527 1527 1527 1525 1526 1526 1526 1529 1527 1524 1520 1518 1522 1522 1512 1500 1495 1497 1498 1496 1496 1495 1491 1490 1490 1488 1488 1488 1489 1490
1540 1541 1541 1541 1542 1541 1542 1542 1542 1542 1543 1542 1542 1541 1541 1541 1541 1542 1540 1532 1530 1536 1536 1536 1538 1538 1538 1539 1538 1538 1538 1538 1538 1538 1537 1537 1537 1536 1537 1538 1537 1536 1535 1537 1538 1536 1535 1534 1534 1534 1534 1534 1532 1531 1530 1530 1533 1531 1528 1529 1527 1525 1526 1525 1527 1528 1528 1529 1524 1516 1519 1523 1513 1497 1491 1496 1498 1494 1490 1488 1485 1483 1483 1483 1483 1483 1484 1486
1540 1540 1540 1541 1541 1541 1541 1541 1541 1542 1541 1541 1541 1540 1541 1542 1541 1543 1540 1530 1531 1537 1535 1536 1538 1537 1538 1538 1538 1538 1538 1538 1538 1537 1537 1537 1537 1537 1538 1538 1537 1536 1535 1536 1537 1535 1534 1534 1534 1535 1536 1534 1531 1530 1531 1531 1531 1529 1528 1529 1527 1527 1527 1526 1528 1526 1530 1533 1521 1512 1517 1520 1510 1494 1489 1493 1494 1489 1482 1478 1477 1475 1475 1475 1475 1477 1478 1480
1539 1539 1539 1540 1540 1540 1541 1540 1541 1541 1541 1541 1540 1540 1541 1541 1541 1540 1534 1528 1532 1536 1535 1536 1537 1537 1538 1538 1538 1538 1538 1538 1538 1537 1537 1537 1537 1538 1538 1538 1538 1538 1537 1536 1535 1534 1533 1533 1534 1534 1533 1532 1530 1530 1530 1530 1530 1528 1529 1528 1527 1528 1527 1529 1531 1528 1533 1529 1510 1505 1512 1520 1513 1488 1475 1479 1477 1475 1473 1469 1468 1467 1468 1468 1467 1469 1471 1473
1538 1538 1538 1539 1539 1540 1540 1540 1540 1540 1540 1540 1540 1541 1541 1542 1543 1536 1528 1529 1533 1534 1535 1537 1538 1538 1539 1539 1538 1537 1538 1538 1537 1538 1538 1538 1538 1538 1538 1538 1539 1539 1538 1536 1533 1532 1532 1532 1532 1531 1529 1530 1531 1531 1529 1529 1529 1529 1530 1529 1528 1530 1529 1531 1533 1533 1536 1525 1506 1504 1509 1520 1514 1475 1457 1466 1465 1465 1467 1463 1462 1461 1461 1461 1460 1462 1464 1466
1537 1537 1537 1538 1538 1539 1539 1539 1539 1539 1540 1539 1540 1541 1540 1540 1538 1531 1528 1531 1531 1533 1535 1536 1538 1538 1540 1541 1539 1538 1539 1537 1537 1539 1539 1539 1539 1539 1538 1539 1539 1537 1535 1534 1534 1531 1529 1530 1531 1529 1528 1529 1530 1532 1530 1528 1529 1530 1532 1533 1536 1541 1539 1535 1536 1538 1537 1522 1508 1511 1511 1511 1499 1466 1454 1463 1461 1459 1460 1456 1455 1454 1453 1454 1455 1456 1458 1461
1536 1536 1537 1537 1538 1538 1539 1538 1539 1539 1539 1539 1540 1540 1541 1537 1530 1528 1532 1531 1529 1533 1536 1537 1539 1540 1540 1539 1537 1539 1539 1536 1537 1539 1539 1540 1540 1539 1538 1538 1539 1538 1536 1537 1539 1534 1526 1526 1531 1529 1526 1527 1528 1530 1530 1527 1528 1530 1531 1533 1537 1544 1544 1540 1541 1541 1533 1516 1505 1510 1513 1503 1483 1460 1452 1453 1451 1451 1450 1449 1449 1446 1447 1447 1448 1451 1453 1456
1536 1536 1536 1537 1537 1538 1538 1538 1538 1538 1538 1540 1539 1539 1539 1533 1528 1530 1532 1532 1534 1536 1536 1538 1539 1540 1540 1539 1538 1539 1537 1535 1538 1539 1539 1540 1539 1538 1537 1537 1538 1538 1538 1539 1540 1537 1527 1520 1524 1524 1522 1523 1524 1526 1526 1525 1528 1529 1529 1532 1533 1536 1535 1533 1536 1531 1522 1514 1507 1510 1509 1492 1470 1452 1444 1444 1444 1444 1443 1442 1441 1439 1440 1442 1443 1445 1448 1451
1535 1535 1535 1536 1537 1537 1537 1537 1538 1538 1538 1539 1540 1540 1536 1527 1526 1529 1528 1531 1536 1536 1537 1540 1539 1538 1538 1539 1539 1539 1536 1535 1537 1539 1538 1538 1537 1535 1534 1534 1535 1536 1538 1538 1537 1539 1534 1522 1519 1520 1519 1521 1521 1522 1523 1524 1527 1528 1529 1532 1531 1529 1527 1527 1529 1524 1522 1521 1511 1506 1496 1474 1457 1444 1438 1441 1439 1437 1437 1435 1434 1434 1433 1436 1439 1440 1443 1445
1535 1535 1535 1536 1536 1536 1537 1536 1537 1538 1538 1539 1540 1539 1533 1525 1526 1529 1528 1530 1533 1534 1536 1537 1537 1536 1534 1535 1538 1538 1538 1537 1537 1537 1536 1536 1535 1532 1531 1530 1531 1533 1534 1535 1534 1537 1534 1523 1518 1521 1520 1519 1519 1518 1520 1521 1523 1526 1529 1528 1526 1525 1523 1526 1528 1523 1526 1524 1503 1492 1483 1464 1455 1444 1432 1435 1435 1431 1432 1430 1429 1429 1428 1431 1433 1433 1436 1439
1534 1534 1534 1535 1535 1536 1536 1535 1536 1537 1538 1540 1538 1533 1530 1527 1527 1529 1530 1530 1531 1533 1533 1530 1530 1532 1531 1531 1534 1537 1539 1537 1537 1536 1534 1534 1530 1527 1528 1527 1527 1529 1529 1531 1532 1533 1533 1524 1517 1520 1520 1518 1518 1519 1519 1519 1519 1523 1526 1523 1521 1523 1522 1525 1528 1521 1523 1521 1496 1483 1477 1465 1461 1448 1429 1432 1435 1428 1426 1425 1423 1423 1423 1426 1427 1427 1430 1432
1533 1533 1533 1534 1534 1534 1535 1535 1536 1536 1538 1540 1538 1532 1530 1529 1527 1528 1530 1530 1530 1532 1532 1527 1526 1530 1531 1530 1530 1535 1538 1535 1536 1537 1533 1531 1525 1521 1524 1524 1524 1527 1527 1530 1532 1532 1534 1528 1517 1517 1520 1518 1519 1522 1520 1518 1518 1519 1520 1519 1519 1524 1522 1523 1526 1519 1518 1516 1496 1480 1471 1462 1457 1446 1430 1430 1431 1425 1420 1419 1419 1419 1419 1420 1420 1422 1425 1427
1532 1532 1532 1533 1533 1533 1534 1534 1535 1536 1538 1539 1535 1530 1529 1529 1528 1528 1529 1529 1530 1531 1530 1526 1526 1530 1532 1530 1529 1533 1536 1533 1535 1536 1530 1526 1523 1519 1521 1522 1523 1526 1526 1528 1532 1531 1533 1532 1523 1518 1519 1519 1520 1522 1521 1517 1518 1520 1519 1519 1519 1521 1520 1519 1520 1515 1511 1509 1496 1480 1469 1453 1441 1433 1427 1426 1422 1418 1416 1415 1414 1414 1413 1414 1414 1417 1420 1423
1531 1531 1531 1531 1532 1532 1533 1534 1535 1536 1537 1535 1532 1529 1529 1529 1527 1528 1528 1528 1529 1529 1528 1527 1528 1529 1529 1530 1529 1530 1533 1533 1534 1533 1529 1525 1521 1518 1519 1521 1522 1526 1526 1527 1530 1532 1532 1534 1529 1521 1519 1520 1517 1516 1514 1511 1515 1520 1520 1520 1518 1517 1518 1516 1513 1507 1506 1505 1498 1488 1474 1447 1424 1420 1422 1420 1416 1413 1414 1413 1411 1409 1408 1409 1410 1412 1415 1419
1530 1531 1530 1529 1531 1531 1532 1533 1534 1535 1535 1532 1529 1529 1529 1527 1526 1528 1528 1528 1529 1528 1528 1528 1528 1527 1526 1527 1528 1527 1530 1532 1532 1531 1528 1524 1520 1516 1516 1518 1520 1524 1526 1528 1529 1529 1530 1532 1529 1522 1520 1518 1511 1508 1508 1507 1508 1511 1513 1513 1512 1512 1516 1517 1511 1502 1501 1501 1493 1490 1480 1445 1414 1413 1417 1415 1413 1412 1413 1413 1409 1406 1406 1407 1409 1411 1413 1416
1529 1529 1528 1529 1530 1530 1531 1532 1532 1533 1532 1528 1526 1526 1526 1526 1526 1526 1526 1527 1528 1528 1528 1528 1528 1527 1526 1525 1526 1527 1527 1528 1530 1530 1526 1522 1519 1515 1514 1516 1518 1520 1523 1526 1526 1524 1526 1529 1527 1521 1516 1511 1505 1503 1505 1506 1505 1506 1507 1506 1506 1509 1511 1514 1511 1498 1494 1493 1485 1486 1483 1444 1409 1410 1415 1412 1413 1412 1410 1412 1409 1404 1404 1405 1408 1411 1412 1416
1527 1527 1527 1528 1529 1529 1531 1530 1530 1530 1528 1525 1524 1524 1524 1524 1525 1525 1526 1526 1526 1527 1527 1527 1526 1526 1525 1525 1526 1526 1525 1524 1524 1524 1522 1520 1517 1515 1514 1515 1517 1519 1521 1522 1523 1522 1523 1526 1525 1520 1511 1505 1503 1503 1504 1504 1505 1506 1503 1501 1503 1503 1502 1503 1501 1494 1491 1488 1482 1485 1478 1437 1406 1410 1415 1412 1413 1411 1408 1409 1406 1404 1404 1404 1407 1410 1412 1415
1524 1525 1525 1526 1528 1529 1529 1526 1524 1525 1524 1523 1523 1523 1523 1523 1522 1522 1524 1524 1524 1525 1525 1525 1524 1523 1523 1525 1525 1525 1524 1520 1518 1519 1519 1518 1515 1513 1513 1514 1515 1517 1518 1519 1519 1519 1521 1522 1522 1520 1515 1507 1499 1497 1501 1503 1504 1503 1499 1498 1499 1498 1499 1499 1495 1498 1494 1480 1475 1481 1467 1429 1407 1410 1413 1411 1412 1409 1407 1406 1404 1403 1404 1404 1406 1409 1412 1415
1523 1523 1524 1525 1525 1527 1526 1523 1521 1521 1521 1522 1522 1520 1520 1520 1519 1519 1520 1521 1521 1522 1522 1522 1522 1522 1523 1525 1525 1525 1524 1520 1518 1519 1519 1517 1515 1513 1513 1513 1514 1515 1516 1516 1517 1517 1519 1519 1518 1518 1519 1513 1497 1487 1491 1498 1500 1499 1495 1495 1496 1495 1498 1497 1495 1498 1489 1470 1467 1471 1455 1425 1408 1408 1409 1410 1410 1407 1406 1406 1404 1403 1404 1405 1406 1409 1411 1414
1520 1520 1522 1524 1525 1524 1523 1521 1521 1521 1520 1520 1519 1518 1518 1517 1516 1517 1518 1519 1519 1520 1520 1520 1521 1522 1523 1524 1524 1524 1524 1522 1521 1520 1519 1516 1513 1512 1513 1513 1513 1514 1515 1516 1517 1518 1519 1518 1514 1512 1512 1508 1497 1488 1490 1495 1497 1495 1492 1491 1492 1492 1493 1494 1493 1487 1476 1470 1466 1455 1445 1434 1418 1410 1409 1407 1406 1406 1405 1405 1405 1404 1405 1405 1407 1409 1411 1413
1516 1514 1515 1518 1520 1522 1521 1520 1520 1520 1518 1517 1514 1513 1514 1515 1515 1516 1517 1517 1517 1518 1519 1519 1520 1520 1520 1522 1522 1521 1522 1523 1523 1521 1518 1516 1514 1512 1513 1513 1513 1514 1514 1516 1516 1517 1519 1516 1511 1509 1505 1499 1495 1492 1492 1496 1495 1491 1489 1486 1485 1487 1489 1491 1487 1474 1469 1476 1463 1439 1439 1443 1426 1412 1411 1408 1407 1407 1405 1405 1405 1404 1405 1406 1407 1410 1412 1414
1511 1508 1507 1508 1509 1512 1515 1514 1514 1515 1516 1514 1512 1511 1511 1512 1513 1513 1514 1516 1517 1517 1517 1517 1517 1515 1515 1517 1517 1517 1521 1523 1521 1518 1514 1513 1514 1513 1511 1512 1512 1512 1513 1515 1515 1516 1519 1515 1509 1508 1503 1497 1496 1494 1492 1495 1493 1488 1485 1483 1480 1482 1484 1482 1475 1468 1471 1473 1455 1435 1439 1441 1426 1416 1413 1410 1411 1411 1407 1405 1404 1404 1405 1407 1408 1410 1411 1413
1506 1504 1503 1504 1503 1503 1504 1504 1506 1510 1512 1512 1511 1510 1509 1509 1509 1509 1511 1515 1516 1515 1515 1513 1510 1511 1513 1514 1513 1514 1515 1512 1509 1511 1511 1511 1512 1511 1509 1509 1510 1511 1512 1513 1514 1515 1515 1512 1508 1508 1503 1498 1497 1495 1492 1492 1489 1483 1480 1477 1475 1475 1475 1473 1467 1464 1467 1463 1449 1441 1443 1438 1426 1419 1414 1410 1412 1412 1408 1406 1405 1405 1406 1407 1408 1410 1410 1412
1500 1500 1500 1501 1500 1500 1500 1500 1503 1506 1509 1510 1509 1507 1506 1506 1505 1506 1508 1509 1508 1511 1514 1510 1505 1507 1510 1512 1512 1509 1505 1501 1498 1501 1507 1508 1508 1508 1506 1504 1506 1511 1512 1512 1514 1514 1513 1510 1507 1507 1503 1495 1491 1490 1488 1488 1487 1481 1473 1468 1468 1469 1468 1467 1463 1460 1462 1458 1448 1446 1448 1438 1421 1414 1413 1412 1411 1411 1409 1407 1406 1406 1406 1407 1408 1409 1410 1411
1495 1496 1496 1497 1496 1497 1498 1498 1500 1502 1503 1505 1504 1503 1502 1502 1501 1502 1502 1501 1499 1502 1506 1503 1501 1505 1509 1511 1510 1504 1499 1499 1498 1497 1501 1502 1502 1503 1502 1500 1503 1508 1510 1512 1511 1511 1512 1510 1506 1507 1501 1489 1486 1488 1486 1484 1484 1476 1461 1452 1454 1461 1461 1457 1454 1452 1451 1449 1446 1449 1448 1432 1414 1410 1412 1411 1409 1409 1408 1407 1406 1406 1406 1407 1407 1407 1409 1409
1491 1492 1493 1494 1493 1492 1493 1495 1497 1497 1495 1495 1496 1496 1496 1496 1496 1498 1498 1496 1495 1495 1497 1498 1499 1503 1507 1508 1505 1498 1494 1496 1497 1497 1499 1499 1498 1499 1499 1499 1500 1502 1506 1510 1509 1508 1511 1508 1505 1508 1501 1487 1486 1489 1486 1484 1474 1455 1440 1434 1437 1447 1452 1449 1446 1443 1441 1440 1441 1441 1431 1416 1410 1412 1412 1408 1407 1407 1406 1405 1406 1405 1405 1405 1405 1406 1407 1407
Wind_Speed
7 7 6 6 6 7 7 7 8 7 8 9 9 10 10 10 10 10 9 9 9 8 8 8 8 9 10 10 9 9 9 9 9 9 8 10 12 13 13 12 12 13 13 12 12 12 8 5 5 6 6 6 7 5 7 9 8 5 2 3 4 4 4 4 4 3 2 3 5 10 13 6 4 3 4 6 12 19 17 14 15 18 23 24 27 31 30 30
6 6 6 6 6 6 6 7 7 6 7 8 8 9 10 11 11 10 9 8 8 8 7 8 8 8 8 8 8 8 9 9 9 9 9 10 11 12 12 13 13 13 13 12 11 13 12 9 8 7 5 4 5 6 6 7 8 6 3 3 5 4 4 1 3 1 3 4 7 10 13 7 4 4 0 3 7 11 14 13 16 22 22 25 29 29 27 29
6 6 6 6 6 6 6 6 6 5 5 7 8 9 10 10 10 10 9 8 7 7 6 7 7 7 7 7 7 7 7 8 7 8 10 11 11 11 11 11 12 12 11 11 11 12 12 11 10 10 8 5 5 6 5 5 5 6 3 3 5 4 5 3 7 7 8 6 6 9 11 5 6 6 1 5 7 6 6 6 10 18 22 25 28 28 30 30
6 7 7 7 6 5 5 5 5 5 6 6 7 9 10 10 10 9 9 8 8 7 6 6 6 7 7 7 7 6 6 6 4 8 11 13 13 12 11 10 10 10 8 9 8 8 9 8 9 9 7 6 5 3 4 5 4 4 4 4 5 3 4 5 11 12 12 9 7 10 8 5 8 7 4 4 5 3 1 2 5 15 24 27 28 30 34 34
6 7 7 7 6 5 4 4 4 4 6 6 7 8 9 9 9 8 9 8 8 7 6 6 6 7 7 7 7 6 8 5 4 8 10 13 14 14 12 11 8 7 7 8 8 6 6 7 7 7 5 5 5 2 3 4 3 3 2 3 2 1 1 6 13 14 13 11 11 11 8 6 6 6 7 4 1 1 3 6 9 16 21 26 30 32 34 36
7 7 7 6 6 5 4 4 3 4 5 6 7 8 9 9 8 8 8 8 7 6 6 6 7 7 7 7 5 6 7 2 5 9 10 13 14 13 12 11 7 4 6 8 8 5 5 7 6 7 6 4 4 3 4 7 3 3 2 2 5 5 1 7 13 12 13 13 11 10 7 5 4 5 7 7 5 2 5 9 12 15 18 24 29 31 34 37
7 6 7 7 5 4 4 4 4 4 5 6 7 8 10 9 8 7 7 7 7 6 6 7 7 7 7 7 5 6 5 3 8 12 12 14 13 12 11 11 8 4 6 7 6 6 7 9 8 9 6 2 5 5 8 12 5 2 1 4 7 6 3 9 11 9 13 12 9 10 7 4 3 1 3 7 5 2 4 7 10 13 17 20 26 30 32 35
7 6 5 5 5 5 4 4 4 4 5 7 7 8 9 8 8 7 7 7 7 6 6 7 8 8 8 7 5 4 6 7 11 13 14 15 12 12 10 10 8 5 5 6 7 8 7 8 10 9 4 2 6 7 10 11 5 3 2 6 8 7 8 11 9 8 12 10 10 11 6 4 2 5 5 5 2 3 3 4 7 10 15 18 24 28 29 32
6 6 4 4 4 5 5 5 4 4 5 7 8 9 9 8 8 7 7 8 8 7 6 7 7 8 7 6 5 3 6 8 11 12 13 14 12 10 9 9 7 4 3 5 6 6 6 7 8 8 3 5 6 8 11 6 2 5 5 8 8 9 11 10 8 8 10 11 11 8 4 2 5 5 4 3 2 3 3 3 3 6 12 17 22 26 27 29
5 4 4 4 4 4 5 5 5 5 5 6 8 10 10 9 8 7 6 6 7 6 6 5 6 7 5 5 4 2 6 8 9 12 13 13 11 8 8 8 7 5 3 4 6 5 7 7 7 6 4 5 5 8 8 2 3 8 7 7 6 10 12 9 10 10 8 10 8 4 4 1 5 1 0 4 3 3 4 4 5 5 9 15 19 22 25 26
5 4 4 4 4 5 4 3 4 4 5 6 8 9 9 9 7 6 4 4 5 5 5 5 5 5 3 5 6 2 6 9 9 14 14 12 11 7 6 7 7 6 4 4 5 7 7 5 6 4 2 4 6 7 3 5 10 10 7 5 6 11 11 8 9 10 5 4 4 1 3 1 3 1 1 5 4 4 4 5 7 6 7 10 14 18 21 23
5 4 4 4 4 4 3 3 3 4 5 6 7 8 8 8 7 6 4 2 2 3 4 4 5 4 1 3 7 5 8 9 9 15 16 12 10 6 6 6 6 7 7 7 6 8 7 5 6 2 1 5 5 4 4 11 14 10 6 4 6 9 8 8 8 9 4 3 4 2 4 3 3 1 3 5 6 5 4 6 8 8 8 7 10 13 16 19
5 5 4 3 3 3 2 3 4 4 5 5 6 7 7 8 7 5 3 2 1 1 3 3 3 3 0 1 5 5 8 8 10 15 14 11 8 6 5 5 4 6 8 9 8 8 7 6 5 2 3 4 3 3 8 13 11 7 4 2 3 7 5 7 6 6 4 4 5 3 4 5 3 2 6 7 6 6 6 7 8 8 8 7 7 10 12 15
5 5 4 3 2 2 2 2 3 4 5 5 6 6 7 8 7 5 3 1 1 1 1 1 2 1 1 1 3 5 7 9 11 16 13 9 8 7 6 5 4 6 7 7 8 7 6 6 5 3 3 3 4 5 8 8 4 3 3 2 2 2 4 8 7 4 2 2 6 8 4 6 4 4 8 8 6 7 8 8 9 9 9 9 7 8 10 13
5 5 5 3 2 2 2 1 2 4 4 5 5 6 7 7 6 4 3 2 2 1 1 0 1 0 1 1 2 4 7 9 12 15 13 10 9 5 6 6 3 4 7 6 6 7 7 6 4 3 4 4 5 5 4 4 3 2 2 2 3 1 3 7 7 5 1 4 4 7 5 5 2 3 7 7 7 7 8 9 9 10 10 10 10 9 10 12
5 5 4 2 1 2 2 1 2 3 4 5 5 7 7 5 5 3 5 4 2 1 1 1 1 2 2 2 2 4 7 10 13 12 10 10 9 6 6 7 6 6 7 6 7 6 5 5 3 3 4 3 2 3 3 4 4 3 2 1 3 1 2 4 3 4 3 3 3 4 4 3 2 2 2 4 6 6 7 8 9 10 11 11 12 12 13 13
4 4 3 2 2 2 2 1 2 3 4 5 6 8 7 6 4 2 6 7 3 2 3 4 3 0 0 2 4 6 7 11 12 9 8 9 9 8 7 6 6 7 7 6 6 4 3 4 3 2 3 2 2 3 4 3 2 3 2 1 3 2 1 2 3 6 8 4 2 3 1 2 2 2 2 2 4 6 6 8 9 10 12 13 14 14 15 16
4 4 3 3 2 1 2 1 2 3 5 6 7 8 6 6 3 1 7 8 2 1 2 4 5 1 1 4 6 8 9 11 10 8 8 9 9 8 7 7 5 6 7 5 5 5 5 4 3 1 3 3 3 4 2 1 1 2 2 1 2 3 1 1 3 4 8 5 2 4 1 4 4 2 2 3 4 5 6 8 9 11 12 14 16 17 18 18
5 4 3 3 1 1 2 2 3 3 5 6 9 9 5 6 2 2 7 8 2 1 1 3 5 1 4 7 8 9 9 8 7 7 10 11 10 7 5 5 5 6 7 4 4 6 5 4 3 2 3 3 3 1 3 5 3 2 2 2 1 3 3 3 4 3 4 3 2 2 2 4 4 5 5 7 8 8 7 8 10 12 13 15 18 19 21 21
5 4 3 3 1 1 1 2 3 4 6 6 9 6 3 6 2 0 8 6 3 2 1 2 4 4 6 7 7 7 6 6 6 7 11 13 8 4 4 4 4 5 5 2 2 5 4 3 2 1 2 4 6 4 4 3 2 2 2 1 2 2 4 4 4 5 4 2 3 3 3 4 6 6 8 12 11 9 11 11 13 15 15 17 19 21 22 23
5 4 3 2 2 1 1 2 3 5 7 8 8 5 5 6 3 3 8 4 2 4 3 4 5 5 4 4 5 7 6 6 5 8 12 12 6 2 4 5 4 4 4 3 2 4 4 2 2 4 4 4 5 4 1 0 2 3 3 1 3 2 5 5 3 6 4 2 3 3 2 6 7 7 10 11 8 10 17 16 17 20 20 21 21 22 24 24
5 3 2 2 2 1 0 1 3 4 7 7 6 7 7 6 4 4 5 2 4 4 3 4 4 2 1 2 5 7 7 5 5 9 13 11 5 2 4 5 4 2 5 5 2 4 4 1 5 5 4 3 4 4 3 2 4 3 1 1 3 2 4 6 4 5 3 1 4 2 3 7 8 6 8 12 12 15 22 22 22 22 22 24 25 25 26 26
4 3 2 2 2 1 0 0 1 2 5 4 4 7 7 7 7 6 3 2 5 3 2 3 2 2 1 3 4 5 6 4 4 10 13 10 5 4 4 4 3 2 4 5 2 3 2 3 5 4 1 3 4 5 5 4 3 2 1 1 3 2 1 3 4 5 4 1 3 3 4 6 7 5 5 13 17 15 18 21 22 22 22 25 26 26 27 28
4 3 2 2 1 1 1 1 1 2 3 3 5 6 7 8 7 4 1 0 3 3 2 2 2 3 2 2 4 4 4 3 4 8 11 9 5 3 2 2 4 3 3 4 1 1 3 5 5 3 3 3 2 5 5 3 3 2 2 2 3 3 3 4 4 6 6 4 3 3 5 5 5 5 6 8 11 13 16 16 19 24 25 25 25 27 29 29
4 2 2 2 1 1 1 2 2 2 4 4 5 6 8 8 5 2 1 1 2 3 2 2 3 2 2 2 4 3 1 1 4 7 8 8 5 2 1 1 3 1 3 5 2 1 5 5 5 5 4 4 1 3 0 2 2 4 2 4 5 4 5 4 4 5 5 5 2 1 3 6 5 5 7 5 2 9 14 13 18 26 27 26 27 30 31 30
4 3 2 2 1 1 1 2 2 3 4 5 5 7 8 6 3 1 1 3 3 3 2 2 2 1 2 2 5 4 0 1 3 5 7 7 4 2 1 1 1 1 2 3 2 1 4 5 5 2 2 3 3 3 3 3 2 2 2 3 3 2 0 3 4 3 1 4 3 2 1 6 6 6 9 7 4 9 9 9 18 27 29 30 32 34 33 33
3 2 2 2 1 1 1 1 2 3 4 5 6 7 7 5 1 2 1 5 3 2 2 2 3 1 1 2 5 3 0 2 2 3 7 6 2 1 0 1 1 1 1 1 2 1 2 5 7 4 3 2 2 3 3 3 4 2 3 2 0 2 2 1 2 2 2 4 4 2 2 4 6 8 10 6 7 10 9 9 15 23 30 35 38 38 36 36
3 3 3 3 2 2 2 2 2 1 3 5 6 6 5 4 2 4 4 3 1 1 1 2 4 2 0 1 2 1 2 2 1 2 6 4 2 2 0 2 1 2 1 3 1 3 1 2 3 3 4 2 3 4 4 3 3 4 5 3 2 1 1 1 1 2 2 3 6 6 1 2 6 7 6 3 5 11 12 13 15 20 30 36 40 42 41 40
3 4 4 3 2 2 2 3 1 1 4 5 6 5 3 3 3 3 4 1 1 2 1 1 4 2 1 1 1 2 2 0 1 2 5 4 1 2 1 2 1 1 1 3 3 5 2 2 1 2 0 3 4 5 3 4 1 4 3 2 3 3 1 1 2 2 2 3 11 10 2 2 6 7 7 4 4 10 13 13 13 22 33 38 41 45 45 44
4 5 4 3 2 2 2 2 1 1 4 5 5 4 3 4 4 4 2 2 1 1 1 2 3 2 2 1 1 1 0 1 1 1 3 2 0 1 2 1 1 2 2 2 2 5 5 4 2 3 5 5 3 4 3 4 4 2 3 3 5 5 4 3 2 2 3 4 12 8 6 4 5 9 12 8 7 11 12 12 12 18 28 36 40 43 45 45
4 5 5 3 2 1 1 2 1 2 3 4 4 3 4 3 4 4 1 2 0 1 1 1 2 1 3 2 1 2 1 1 2 2 1 1 1 1 1 0 2 3 3 4 2 5 5 2 2 4 7 5 1 4 3 2 2 2 4 4 4 5 4 4 4 3 1 7 8 2 6 6 7 12 10 8 10 13 12 13 13 14 21 32 38 41 44 46
4 6 5 4 3 1 1 2 2 2 2 2 2 1 4 2 2 2 2 1 0 2 0 0 1 2 3 2 1 2 1 2 2 2 1 0 1 1 1 2 1 3 3 2 2 5 4 2 2 3 4 5 3 1 4 3 2 4 3 4 3 3 4 3 3 1 3 8 6 1 3 3 10 15 11 11 13 14 15 17 19 20 23 31 36 38 41 44
5 6 6 5 4 1 2 2 2 1 1 0 1 1 5 4 2 4 1 1 1 2 1 1 1 3 3 1 2 2 0 1 1 1 1 1 1 2 2 4 5 3 1 2 2 4 3 4 3 2 3 5 7 2 2 2 1 3 3 3 3 2 1 2 3 2 4 7 6 2 2 3 8 11 12 15 18 20 24 27 31 33 32 34 37 38 39 41
4 5 6 6 4 2 1 2 2 1 1 2 2 3 5 1 4 2 1 3 2 1 2 2 2 3 2 1 3 2 0 1 1 2 0 1 1 2 2 3 4 4 2 1 2 1 1 4 3 2 2 6 7 5 4 3 2 3 4 5 4 4 3 3 3 3 4 5 5 2 3 4 4 4 6 10 15 23 28 33 37 39 39 37 35 35 35 38
4 6 7 7 5 4 1 2 2 1 2 4 3 4 3 4 4 1 2 4 2 0 1 2 3 2 3 2 3 1 1 2 1 2 0 2 2 2 2 3 4 4 2 1 2 1 2 4 6 3 3 8 7 5 6 4 1 2 3 4 2 4 4 2 4 5 3 5 5 3 3 6 5 9 11 11 14 18 23 29 31 34 37 33 28 30 34 38
4 5 7 7 6 5 3 3 2 2 5 4 4 2 4 4 2 3 3 2 3 3 1 2 2 2 3 3 3 1 1 1 1 1 1 2 3 4 4 3 5 7 5 3 2 1 1 5 5 1 2 8 9 7 7 5 2 1 2 2 2 4 4 1 3 3 1 5 5 3 6 8 6 12 14 12 14 14 16 18 20 27 31 27 27 32 35 39
5 6 6 7 7 6 5 4 2 3 5 4 3 3 4 2 3 3 3 3 3 4 4 1 1 2 2 2 3 2 0 1 1 0 1 2 3 4 4 3 6 9 8 4 1 2 2 4 5 3 4 8 9 8 5 7 6 3 3 3 1 3 3 1 3 3 1 5 5 4 10 11 7 8 6 5 10 13 14 13 14 21 23 23 29 34 37 40
5 5 6 7 7 7 6 3 3 5 5 3 0 4 3 2 3 3 4 4 3 3 4 2 3 2 3 2 3 3 2 1 1 1 1 2 3 4 4 2 4 8 10 6 1 1 2 2 6 3 3 3 2 3 3 7 8 4 1 2 2 1 1 1 2 3 2 5 5 4 9 10 7 7 8 9 12 15 16 13 11 14 15 21 29 34 36 38
6 5 5 6 8 7 5 4 5 7 5 2 2 4 1 2 3 4 6 4 3 3 2 3 2 1 3 4 3 3 3 3 2 1 1 2 2 4 5 3 2 5 9 9 3 2 2 1 4 2 2 0 2 2 2 3 3 2 1 1 2 1 2 1 1 2 2 4 6 5 6 7 7 8 10 13 15 15 15 11 9 10 15 24 30 32 34 37
7 4 3 6 8 7 6 6 7 7 3 1 4 3 1 2 3 5 8 5 2 3 2 2 3 2 3 4 3 2 2 3 4 2 2 2 2 3 5 5 3 4 7 8 3 1 2 2 3 2 1 2 1 3 5 4 4 3 3 4 4 2 1 2 3 3 3 4 5 6 8 9 9 6 8 13 15 14 11 9 9 10 17 26 30 32 34 38
7 3 4 8 9 7 8 7 6 4 2 2 3 2 1 1 3 5 8 7 4 3 2 2 3 3 3 3 3 3 2 2 4 3 3 3 3 3 6 9 8 7 6 4 2 2 2 2 3 2 3 4 5 5 6 7 6 5 5 5 6 5 2 3 5 4 4 4 5 5 7 13 11 3 6 10 10 9 9 8 9 10 16 22 24 28 33 36
9 3 3 9 9 9 10 6 3 4 2 3 3 2 2 2 2 5 7 6 4 3 2 1 2 3 3 3 3 3 3 2 3 3 3 4 4 3 6 12 15 14 9 2 2 5 4 2 3 5 6 7 10 7 4 5 5 4 5 5 4 5 4 4 5 3 3 5 6 5 6 13 10 3 5 7 6 8 11 8 10 12 14 18 19 22 28 31
9 5 5 9 11 12 9 2 2 3 2 3 3 3 4 3 3 4 5 5 4 2 1 1 2 3 3 2 2 3 3 3 4 5 3 4 5 4 7 15 17 13 7 0 1 5 4 2 2 5 6 6 7 3 1 2 3 3 5 5 5 6 7 8 6 3 3 4 5 4 6 12 8 3 4 6 5 9 11 8 11 12 10 15 19 20 25 29
8 7 7 10 13 13 8 2 2 4 4 2 1 2 4 5 5 6 5 5 5 4 2 2 3 4 3 1 3 3 3 2 3 5 3 3 3 3 7 19 18 10 6 2 2 7 5 1 2 2 5 6 5 2 0 1 3 4 4 5 7 8 8 8 6 3 5 8 8 4 7 11 7 1 2 5 5 6 8 6 7 11 11 16 20 22 26 29
6 5 6 12 17 15 8 4 2 2 3 2 1 3 3 3 6 9 7 6 7 6 4 2 2 3 2 2 2 2 3 2 2 2 1 2 3 2 6 19 19 12 8 3 4 8 4 1 3 2 2 4 4 3 3 2 2 3 2 5 8 10 12 9 4 3 7 8 5 5 8 12 13 12 10 9 7 7 7 5 2 10 14 18 21 24 27 30
6 4 4 7 15 17 12 9 5 2 2 3 1 2 4 2 4 7 7 5 7 8 4 1 2 3 2 2 2 3 4 3 2 2 2 3 3 2 5 15 17 12 8 5 6 5 1 2 5 6 6 8 8 8 4 1 3 5 6 8 9 10 13 10 4 5 6 5 7 11 12 15 21 21 16 14 13 13 10 4 2 8 14 18 21 25 28 30
5 4 6 6 7 11 11 10 9 5 2 4 3 2 4 3 1 2 5 5 5 7 5 2 3 4 3 4 4 4 4 2 1 3 4 4 4 3 3 10 12 10 7 6 6 4 0 3 7 9 13 14 13 14 11 7 10 13 13 14 11 9 10 9 10 10 3 3 10 11 6 10 19 19 18 19 17 15 13 8 5 9 14 17 20 23 26 28
9 5 9 9 5 5 6 9 14 12 5 4 4 1 3 4 2 3 5 3 2 6 5 2 5 8 8 7 4 2 2 0 2 4 3 3 3 2 2 4 8 10 7 5 5 5 2 4 6 8 14 15 13 15 14 11 13 15 15 17 16 12 11 13 18 16 8 8 15 12 7 12 18 20 21 20 14 13 15 12 6 10 13 17 20 23 25 27
14 7 8 10 7 8 8 10 16 16 9 5 4 3 4 5 5 3 3 2 1 6 7 3 6 10 10 7 5 3 4 3 4 5 3 3 3 2 1 2 4 7 7 5 3 4 3 3 4 5 10 13 12 14 15 13 14 15 17 18 17 16 15 17 18 17 14 16 20 19 18 19 19 19 20 20 16 13 12 7 3 10 14 17 20 23 26 28
18 13 10 9 7 9 9 9 12 11 7 6 5 4 4 6 6 4 3 6 3 2 6 7 9 8 10 9 7 7 9 8 5 5 5 4 2 2 3 3 2 3 4 4 2 3 4 2 2 0 6 9 9 11 12 11 12 14 18 18 16 16 15 16 16 13 12 16 20 19 17 18 18 16 15 17 14 8 5 2 4 9 14 18 20 23 26 28
24 20 15 9 5 7 9 7 8 6 4 6 6 4 4 6 8 5 4 12 13 7 9 12 8 5 6 8 10 13 17 14 10 9 9 9 6 5 4 4 6 5 4 4 2 4 5 3 3 4 4 7 4 5 8 8 8 13 19 21 16 13 10 10 11 10 11 14 14 11 10 13 14 8 7 10 7 2 3 5 6 10 13 17 21 23 26 28
30 25 20 11 5 8 9 5 5 6 5 7 9 8 7 9 11 9 3 10 18 17 15 14 8 5 4 7 13 21 25 23 20 16 11 10 9 7 7 7 9 8 5 4 2 2 5 2 1 2 3 7 5 5 7 8 9 10 12 12 8 8 8 7 7 9 12 11 7 6 8 10 7 3 3 6 6 4 5 6 8 11 14 17 20 22 24 26
Wind_Direction
10 6 5 4 4 5 5 1 359 1 5 6 8 7 5 8 8 9 8 7 8 9 8 1 2 359 355 352 350 346 338 345 355 357 4 13 14 4 0 358 352 348 338 332 328 326 322 316 302 282 268 251 250 241 208 205 198 189 134 167 220 192 192 197 175 221 243 288 314 341 339 308 296 343 94 106 120 114 118 124 124 143 146 150 154 154 161 168
5 4 5 4 5 2 3 3 1 6 13 7 10 9 4 4 3 7 9 9 14 13 10 2 4 6 355 350 347 345 334 335 357 18 22 15 11 4 356 350 347 344 338 336 343 349 346 340 342 339 317 268 234 223 209 207 202 195 130 179 225 191 207 190 105 336 347 315 300 331 339 324 316 330 117 96 92 98 104 109 122 133 138 147 151 154 161 168
0 4 4 5 3 1 2 4 6 12 19 13 12 8 1 1 1 4 8 12 15 16 16 1 359 2 352 346 344 342 329 325 355 22 20 10 4 358 346 341 337 332 336 337 345 351 342 338 344 342 332 302 241 221 216 204 205 212 171 198 238 205 228 349 38 17 4 333 311 338 343 4 4 348 177 129 101 86 95 106 124 131 136 144 149 153 157 167
360 2 4 5 359 4 11 6 12 19 15 11 12 7 359 357 360 2 6 12 12 15 18 360 359 359 348 347 345 343 334 323 351 9 6 4 359 350 340 337 328 319 324 321 324 335 330 332 333 332 330 302 269 243 232 212 208 221 179 197 242 214 230 344 13 11 11 2 354 353 356 27 2 11 87 124 108 74 85 126 130 140 143 145 150 153 157 166
2 359 1 5 357 5 22 11 14 21 8 2 8 6 360 357 359 3 4 5 8 15 15 359 360 359 351 348 344 350 354 340 334 349 349 349 347 341 334 333 325 314 319 309 305 315 319 323 329 343 347 307 307 317 263 239 225 240 211 194 272 2 228 341 6 8 10 12 14 12 7 354 342 35 54 27 66 141 169 157 147 145 147 148 153 155 158 166
358 355 357 358 352 357 15 18 16 12 1 0 7 2 356 357 360 4 1 2 8 15 13 4 1 357 351 348 342 352 10 11 326 339 339 338 338 334 329 326 326 313 311 301 300 317 333 343 358 5 353 328 343 333 319 327 297 239 292 26 11 15 46 350 3 5 4 19 26 7 339 345 58 58 35 46 60 86 167 162 155 151 151 153 156 159 161 167
352 352 354 351 342 349 7 14 8 3 358 360 3 358 353 351 356 3 5 13 18 19 15 6 1 357 350 349 346 350 27 38 341 342 338 339 339 333 327 321 321 306 310 310 320 352 357 7 19 8 353 349 3 341 332 336 329 174 293 354 2 1 11 350 358 357 355 14 16 352 336 355 64 108 59 76 77 119 173 174 169 160 156 158 161 163 164 168
349 347 354 353 341 345 357 359 360 5 360 354 353 355 352 349 358 6 15 21 21 24 17 5 360 355 350 352 350 358 24 8 347 347 343 344 342 332 326 323 321 305 329 349 0 359 358 20 22 13 13 346 357 340 337 341 351 67 352 333 346 337 340 343 347 347 343 348 351 357 10 8 40 156 122 88 109 161 189 193 184 175 164 163 165 166 168 169
348 343 348 349 340 345 350 351 1 7 3 355 351 354 354 358 5 10 22 21 17 25 14 2 355 348 350 355 356 7 4 353 356 359 353 350 344 332 325 327 330 317 342 5 5 357 3 22 14 10 351 308 335 329 336 348 3 21 336 324 338 330 334 336 328 338 339 326 334 0 5 29 108 122 110 112 164 198 241 251 224 205 177 165 164 167 170 171
343 338 342 342 338 345 352 359 4 2 360 355 355 358 359 4 9 9 21 21 15 18 6 355 345 347 357 6 20 27 354 4 14 10 3 356 349 341 330 325 329 329 332 351 357 3 14 9 338 340 314 300 322 316 331 10 316 332 323 315 331 329 327 319 309 314 325 313 314 12 345 221 139 61 19 159 180 212 231 258 261 239 190 167 164 165 167 171
341 338 337 336 333 339 355 2 356 356 352 352 357 1 359 2 10 4 10 26 18 7 353 340 339 350 8 30 48 53 8 22 23 10 4 356 351 354 358 348 338 335 330 343 353 355 3 348 320 325 306 328 330 305 316 358 329 324 332 328 326 337 326 305 297 294 305 295 271 11 338 223 153 305 186 164 175 187 215 238 239 237 209 171 164 166 166 170
335 330 327 331 330 334 352 349 345 353 348 348 353 357 355 354 3 2 359 20 27 3 336 321 336 351 327 34 39 34 20 26 15 4 357 349 347 345 5 12 357 350 346 343 343 346 351 339 335 342 323 341 330 307 325 333 325 316 342 346 322 350 333 298 287 270 253 227 239 325 312 248 179 192 152 162 172 186 221 226 230 234 224 195 173 172 171 173
327 326 325 324 319 318 336 342 347 352 347 345 343 344 345 343 350 2 5 359 20 356 316 301 323 351 236 17 26 28 22 18 5 358 349 340 332 312 329 354 5 7 357 350 345 347 355 345 338 327 332 332 289 305 320 319 319 308 340 43 332 359 330 308 311 272 250 220 200 154 277 247 179 154 163 176 183 194 222 228 237 240 238 233 200 183 180 182
322 323 321 310 305 302 312 343 354 352 347 341 335 331 334 339 342 349 5 335 298 283 273 301 311 334 119 47 18 18 16 13 357 352 350 341 324 300 312 331 1 2 344 345 348 345 350 344 336 331 340 327 301 321 327 327 339 319 345 36 9 23 288 320 359 358 340 265 185 163 242 249 202 192 181 188 193 197 224 237 244 249 252 254 235 210 199 195
318 318 315 302 291 297 307 334 358 355 344 338 331 325 331 345 341 351 35 12 324 294 236 274 322 68 96 34 30 360 359 4 352 350 354 351 339 310 301 305 307 325 316 322 341 343 340 336 338 346 339 333 341 355 351 343 356 14 24 339 346 146 266 322 9 44 26 285 206 174 232 263 228 180 177 190 201 203 223 235 244 252 253 256 253 239 224 215
319 321 319 309 283 277 299 322 1 354 338 336 335 331 337 355 345 16 53 26 7 27 177 113 41 77 55 8 16 343 342 352 349 350 352 354 351 331 308 298 281 285 298 313 331 338 338 340 354 358 349 351 32 53 37 9 345 7 84 254 295 246 291 322 356 40 37 323 269 218 243 283 5 52 179 200 211 220 228 232 239 248 253 256 255 250 243 234
331 331 327 311 277 270 290 319 360 345 331 336 343 341 343 356 347 53 42 19 17 76 93 57 5 210 104 8 359 339 337 341 339 343 348 352 349 339 324 309 295 287 301 324 338 360 11 7 18 351 360 25 62 73 52 20 323 340 26 296 284 277 315 312 299 359 23 31 324 322 315 248 304 348 309 241 226 241 234 233 237 241 250 254 253 252 248 244
326 320 316 302 284 296 302 332 349 336 335 339 346 348 346 350 339 127 26 15 12 136 111 30 8 176 232 352 353 337 330 327 328 338 345 342 340 341 330 320 321 311 326 355 10 30 20 1 31 31 9 13 24 69 88 202 181 329 323 277 321 318 315 300 276 336 16 34 7 355 348 243 260 264 282 266 248 254 238 233 240 242 245 248 251 251 250 249
311 310 307 302 295 291 291 330 346 338 338 339 345 348 353 354 346 156 14 15 60 118 167 360 16 112 276 313 331 331 324 322 329 342 342 336 334 339 340 334 342 342 351 10 10 16 11 355 30 39 5 347 335 77 199 212 184 264 264 180 307 312 283 283 270 294 7 21 326 316 250 242 236 223 227 226 228 236 234 227 231 239 242 243 246 247 249 251
307 305 301 301 286 293 309 338 352 341 335 341 347 354 30 17 27 303 354 15 86 48 16 337 338 295 279 295 325 340 340 339 340 344 345 343 339 358 34 14 355 7 9 6 334 347 11 29 20 257 272 296 295 271 233 227 177 159 101 102 300 291 290 296 280 296 343 6 270 221 210 247 236 235 228 219 221 227 226 219 219 227 234 239 243 245 247 249
302 298 306 306 275 277 302 347 353 338 338 349 357 28 66 39 49 326 340 8 59 1 338 309 306 294 284 297 339 358 353 344 346 353 353 350 351 23 31 23 23 19 341 320 293 321 11 44 270 228 228 265 299 302 257 83 85 99 95 30 323 278 267 275 264 297 342 38 273 212 200 266 247 238 232 218 215 226 225 220 220 224 227 234 239 243 245 247
298 294 310 297 268 270 282 7 353 340 349 356 16 54 58 38 32 346 338 311 295 319 317 309 299 285 337 331 348 0 356 358 354 353 355 352 2 27 15 37 50 3 329 348 1 349 15 312 262 243 241 299 340 16 41 61 75 69 78 21 319 289 278 292 288 301 354 60 283 246 216 263 256 244 229 213 211 226 229 226 228 230 228 230 232 236 240 244
294 293 301 280 266 270 271 343 308 344 359 10 47 51 41 27 15 357 345 295 292 289 296 309 288 292 351 355 347 352 4 21 339 344 360 357 1 31 32 52 38 346 356 17 37 21 11 261 267 257 308 12 350 4 30 33 52 46 353 341 290 289 310 301 301 316 335 287 266 278 267 269 269 272 243 224 224 235 241 234 234 236 235 235 236 237 237 239
296 297 293 279 270 280 278 224 226 326 353 27 45 31 22 18 8 349 308 303 300 276 263 253 265 295 301 345 348 345 12 32 337 347 6 3 354 10 23 50 37 22 355 355 44 146 245 261 290 320 25 59 316 336 29 43 356 313 260 227 258 287 248 243 286 327 337 308 247 270 298 289 269 261 257 243 237 250 253 246 243 239 236 239 241 240 239 238
299 285 279 283 275 296 281 224 233 325 349 22 22 6 9 6 360 6 124 66 323 279 226 225 246 256 255 335 354 344 44 36 355 358 3 2 357 342 320 44 54 28 316 326 358 278 262 286 325 341 5 45 30 318 74 118 353 320 259 228 241 258 256 267 321 351 359 328 286 161 291 287 291 273 262 276 276 253 247 238 244 242 238 238 238 238 237 236
291 266 272 277 246 276 264 239 284 342 4 17 0 351 356 354 1 145 130 57 348 265 170 194 214 202 248 307 334 323 255 309 347 3 356 358 353 322 324 357 60 105 299 317 347 293 279 332 5 357 337 19 21 300 250 129 78 318 262 221 208 175 10 344 7 43 57 289 289 117 220 271 300 291 262 259 247 248 244 229 237 238 236 237 236 236 236 233
278 246 256 255 235 242 236 249 312 1 17 4 354 348 344 354 25 183 113 38 344 235 160 200 200 181 267 299 328 336 175 291 313 2 354 355 348 359 255 304 34 107 308 15 13 306 303 348 7 27 32 14 336 284 257 129 108 253 252 226 214 52 33 344 49 73 228 276 291 224 201 265 281 268 251 235 235 252 255 246 243 236 232 233 235 236 235 234
269 224 230 243 238 251 266 292 297 28 17 355 359 351 345 24 107 157 103 46 298 169 141 202 181 159 343 279 320 103 157 291 329 346 352 4 336 8 13 255 170 211 283 97 160 279 320 360 352 31 30 331 242 242 231 130 115 251 260 287 324 5 241 219 54 282 279 360 293 258 160 254 263 264 255 209 229 258 251 241 241 235 231 230 231 234 234 233
257 225 226 235 242 263 310 322 283 17 2 358 6 354 6 90 125 104 80 136 223 94 90 166 168 192 342 208 198 123 156 313 105 296 347 19 343 33 55 262 181 194 312 121 189 259 249 212 195 120 88 258 235 245 221 139 176 260 273 334 357 24 9 36 54 285 24 11 268 257 143 225 266 271 258 226 219 247 248 242 235 230 231 231 229 231 232 231
244 229 223 224 245 268 324 351 10 9 357 2 9 19 85 118 108 68 38 238 185 74 108 148 193 245 14 56 299 349 255 254 358 332 351 25 356 52 90 266 17 66 355 353 233 257 262 248 222 190 227 231 229 267 243 181 223 299 27 23 4 5 9 26 38 56 50 285 265 245 164 180 273 263 241 232 223 224 234 245 242 231 229 231 230 228 228 228
239 228 221 218 229 263 344 4 20 13 2 7 13 58 114 108 78 89 215 234 120 3 79 141 253 28 55 64 299 313 354 310 332 51 10 359 2 347 68 48 2 39 357 342 310 293 313 296 233 238 236 224 238 291 283 249 244 44 53 49 14 335 357 16 360 37 159 258 273 223 149 163 244 258 243 232 237 229 229 241 246 239 229 229 231 227 224 225
241 226 220 215 199 157 38 11 10 18 1 5 13 117 125 71 29 182 234 2 24 266 104 228 293 69 75 49 298 269 314 309 336 71 130 117 21 291 158 174 162 38 343 313 329 326 328 251 247 299 252 199 148 306 306 330 43 85 72 64 51 334 359 4 318 354 216 253 281 208 133 183 244 261 264 248 244 237 232 236 239 242 237 233 233 230 225 221
238 222 218 212 192 153 58 15 348 359 320 172 142 108 91 76 250 217 236 12 216 236 90 97 50 86 102 44 286 258 141 262 247 69 170 132 25 272 215 196 169 123 242 247 319 341 339 305 293 345 284 190 156 150 277 296 131 136 137 118 111 105 44 278 271 289 262 274 289 228 168 264 265 268 257 242 241 240 237 238 239 242 241 238 237 235 228 220
230 215 217 211 192 189 35 344 297 303 283 177 142 80 82 138 236 208 246 248 224 358 60 90 47 38 70 208 259 242 61 285 159 109 342 80 12 274 242 228 178 132 100 323 301 161 84 314 247 192 218 176 177 192 176 149 153 179 153 136 147 150 167 225 225 238 265 286 283 195 151 238 251 265 232 219 235 240 239 240 240 241 242 240 239 233 225 218
226 214 215 211 203 215 260 295 265 206 200 185 99 72 121 223 241 191 230 233 209 331 351 50 74 41 333 299 285 244 172 268 166 112 210 178 189 218 208 214 188 169 133 109 268 168 121 266 245 225 170 162 182 201 163 127 86 226 140 117 179 188 171 215 214 211 262 299 273 211 216 234 248 283 272 254 256 249 243 242 238 240 239 234 228 221 218 217
226 218 217 216 215 226 254 270 249 177 195 173 79 88 202 228 223 177 182 159 151 167 144 12 70 102 303 305 322 336 133 256 300 43 265 215 206 213 207 207 183 181 174 153 210 181 49 281 264 259 203 194 192 184 174 172 153 163 167 166 213 183 151 222 255 233 276 285 264 212 254 269 282 286 273 258 263 260 251 245 238 239 235 220 213 215 215 215
226 219 219 217 219 232 246 252 209 180 195 154 102 211 216 214 195 178 150 123 132 137 119 347 248 168 230 280 290 281 271 303 289 197 260 249 235 208 202 230 187 182 188 163 160 187 151 283 265 194 234 239 205 184 203 206 181 144 180 205 167 142 129 127 264 288 258 261 266 225 256 275 281 279 275 251 259 263 260 250 238 238 227 209 210 213 213 214
225 227 232 224 223 229 230 230 189 178 174 118 174 246 220 186 203 177 156 150 130 101 111 196 229 194 183 200 261 242 165 227 244 186 226 256 251 194 166 204 189 187 195 167 100 275 123 318 284 217 219 265 178 171 267 242 212 187 186 202 129 181 248 158 225 263 234 261 281 242 251 264 249 251 274 273 263 265 267 259 243 236 216 205 211 213 211 211
216 229 241 219 208 211 206 195 179 171 158 116 231 245 219 215 235 189 175 170 129 123 159 210 211 140 166 175 210 217 183 196 193 188 234 234 241 203 175 183 176 184 184 161 156 287 104 104 296 298 219 228 80 149 229 251 221 205 310 267 158 212 259 231 242 252 233 268 287 282 277 269 242 235 252 264 264 266 271 264 245 231 212 208 211 209 206 203
205 215 233 194 184 188 183 175 169 158 147 194 206 217 275 247 229 191 186 190 173 170 214 221 178 174 205 195 201 204 190 194 177 184 240 225 240 235 202 180 142 139 153 146 156 317 81 198 254 342 282 221 184 196 201 189 159 170 223 224 208 199 193 262 250 229 241 276 288 290 292 279 266 236 226 249 260 268 277 272 258 241 220 214 212 207 203 200
195 215 229 189 179 184 176 168 172 168 171 243 219 220 264 198 191 192 198 207 220 216 210 193 180 191 200 201 215 193 169 188 186 196 239 225 235 249 203 179 155 138 135 133 179 192 148 212 243 276 261 233 232 217 203 200 181 179 199 206 215 204 176 266 259 223 219 236 251 267 284 283 278 212 201 240 254 270 279 270 267 258 230 221 214 206 202 200
191 211 211 184 180 182 172 168 195 184 187 229 227 216 200 187 188 195 200 209 225 228 211 189 195 201 194 198 213 180 163 195 193 195 234 229 218 227 200 183 167 154 148 139 224 191 173 178 263 264 251 250 254 242 214 216 209 212 220 200 197 197 189 225 243 243 225 221 242 251 264 277 275 168 191 242 254 273 278 266 263 263 235 214 208 203 199 196
196 202 191 183 185 180 172 201 238 195 220 231 222 223 207 196 176 174 187 205 209 195 198 222 202 202 218 206 182 179 189 200 191 194 229 239 228 238 196 180 168 156 152 230 246 173 160 166 254 276 275 276 275 259 138 195 191 232 242 201 184 202 206 214 229 283 298 239 242 251 255 269 273 150 197 251 267 276 288 283 255 249 220 193 192 193 191 190
196 198 191 188 186 180 181 229 200 203 242 237 255 261 225 215 200 181 184 200 196 171 168 219 211 206 223 161 144 198 213 206 215 216 223 220 233 274 191 177 170 167 186 226 168 169 169 173 199 282 312 318 335 12 41 236 185 223 243 208 209 220 222 236 248 283 288 255 239 243 259 263 265 211 257 292 303 288 307 318 239 209 185 177 182 185 186 186
181 186 192 192 188 187 208 245 202 196 211 179 308 266 219 232 222 206 203 201 194 182 173 219 200 171 166 125 111 262 235 209 236 247 274 244 246 304 191 183 179 183 200 188 133 163 181 214 180 188 280 277 288 262 223 212 199 223 231 208 216 219 219 232 244 235 253 256 238 228 250 270 284 292 297 306 312 305 315 334 198 183 180 177 178 181 183 184
182 185 173 179 190 201 227 251 242 221 184 175 273 241 187 217 240 211 205 207 202 192 184 203 166 139 129 157 177 261 246 224 246 275 300 258 249 300 192 191 192 197 202 177 150 160 212 265 212 210 221 230 248 251 240 287 274 266 260 235 221 215 217 222 231 233 243 280 277 253 249 273 286 291 300 310 315 319 321 316 182 175 178 179 180 182 183 184
188 202 184 166 189 213 236 251 234 219 204 189 197 199 187 204 288 201 199 215 206 191 195 212 172 172 186 173 181 232 230 222 248 249 249 232 246 296 222 201 206 206 194 178 177 175 314 257 229 227 234 241 255 262 271 291 278 270 271 263 249 224 210 212 227 233 231 323 274 256 234 261 277 288 301 307 313 321 322 306 237 190 180 180 180 181 182 184
200 218 201 187 184 189 213 236 218 208 216 206 194 191 183 188 202 196 199 215 199 187 197 237 213 205 194 172 167 198 187 210 253 238 242 229 238 296 262 218 218 207 185 167 183 173 163 255 236 227 243 251 257 266 272 273 266 263 264 263 260 244 216 217 232 234 221 237 253 263 278 274 279 290 294 298 308 315 314 310 255 197 182 179 179 179 182 185
209 232 213 201 210 197 195 204 195 193 206 208 200 213 194 191 208 211 165 116 252 215 196 222 238 215 198 180 168 181 186 190 233 237 219 203 211 210 219 239 227 206 180 156 191 181 164 258 250 228 255 260 255 261 264 261 265 267 261 256 255 250 234 229 239 237 224 236 251 263 276 277 276 279 281 291 306 309 306 309 199 183 180 179 181 183 186 189
210 222 211 201 218 214 207 189 169 177 201 197 205 226 197 193 207 215 168 166 196 211 180 219 245 209 192 194 188 212 217 194 204 228 186 172 221 215 210 212 176 179 174 160 200 190 179 255 316 183 277 272 250 251 258 258 263 268 267 260 246 244 244 238 243 241 229 240 250 256 269 275 271 270 275 285 297 305 295 273 187 191 189 186 187 189 192 195
212 217 214 207 208 199 198 182 157 167 193 181 196 208 186 205 208 199 207 205 204 191 179 205 225 173 177 202 204 229 236 218 223 235 196 185 208 204 207 198 151 143 182 188 183 169 181 251 2 47 314 284 264 272 283 288 283 271 272 268 245 229 233 231 230 223 213 227 242 251 256 257 261 275 287 281 287 300 272 256 225 211 203 197 198 199 201 203
213 216 217 213 214 192 185 172 166 192 203 189 195 196 193 211 201 180 212 228 215 217 213 202 182 135 157 201 214 236 244 239 243 249 228 219 232 228 228 214 176 164 173 177 187 169 159 176 44 65 294 280 293 326 322 322 316 285 265 256 225 199 213 234 246 231 214 211 216 222 231 243 260 302 293 287 306 312 282 264 246 233 221 214 214 214 214 214